TimeMST,TemperatureF,Dew PointF,Humidity,Sea Level PressureIn,VisibilityMPH,Wind Direction,Wind SpeedMPH,Gust SpeedMPH,PrecipitationIn,Events,Conditions,WindDirDegrees,DateUTC
12:51 AM,26.1,21.9,84,29.68,-9999.0,SSE,12.7,18.4,0.01,,Unknown,150,2013-02-23 07:51:00
1:51 AM,26.1,21.9,84,29.64,-9999.0,SSE,12.7,19.6,0.01,,Unknown,150,2013-02-23 08:51:00
2:51 AM,26.1,21.9,84,29.57,-9999.0,SSE,11.5,20.7,0.03,,Unknown,150,2013-02-23 09:51:00
3:51 AM,25.0,23.0,92,29.55,-9999.0,ESE,5.8,-,0.06,,Unknown,120,2013-02-23 10:51:00
4:51 AM,23.0,19.9,88,29.62,-9999.0,NNW,10.4,20.7,0.04,,Unknown,340,2013-02-23 11:51:00
5:51 AM,21.9,14.0,72,29.65,-9999.0,NNW,8.1,16.1,0.01,,Unknown,330,2013-02-23 12:51:00
6:51 AM,19.0,15.1,85,29.72,-9999.0,NW,11.5,19.6,N/A,,Unknown,320,2013-02-23 13:51:00
7:51 AM,17.1,12.9,84,29.75,-9999.0,NW,3.5,-,0.03,,Unknown,320,2013-02-23 14:51:00
8:51 AM,18.0,7.0,62,29.78,-9999.0,NW,9.2,-,N/A,,Unknown,320,2013-02-23 15:51:00
9:51 AM,17.1,6.1,62,29.81,-9999.0,North,6.9,-,N/A,,Unknown,350,2013-02-23 16:51:00
10:51 AM,21.0,5.0,50,29.81,-9999.0,NNW,11.5,21.9,N/A,,Unknown,330,2013-02-23 17:51:00
11:51 AM,19.9,6.1,55,29.83,-9999.0,NNW,8.1,16.1,N/A,,Unknown,330,2013-02-23 18:51:00
12:51 PM,21.0,7.0,55,29.82,-9999.0,NNW,9.2,23.0,N/A,,Unknown,340,2013-02-23 19:51:00
1:51 PM,24.1,6.1,46,29.81,-9999.0,NNW,12.7,21.9,N/A,,Unknown,330,2013-02-23 20:51:00
2:51 PM,21.0,8.1,57,29.83,-9999.0,North,10.4,21.9,N/A,,Unknown,350,2013-02-23 21:51:00
3:51 PM,24.1,7.0,48,29.84,-9999.0,NNW,9.2,21.9,N/A,,Unknown,330,2013-02-23 22:51:00
4:51 PM,21.0,10.0,63,29.90,-9999.0,NNW,8.1,-,N/A,,Unknown,330,2013-02-23 23:51:00
5:51 PM,18.0,10.9,74,29.95,-9999.0,NNW,5.8,-,N/A,,Unknown,340,2013-02-24 00:51:00
6:51 PM,18.0,10.9,74,29.99,-9999.0,NW,4.6,-,N/A,,Unknown,310,2013-02-24 01:51:00
7:51 PM,17.1,10.0,74,30.03,-9999.0,Calm,Calm,-,N/A,,Unknown,0,2013-02-24 02:51:00
8:51 PM,15.1,7.0,70,30.06,-9999.0,Calm,Calm,-,N/A,,Unknown,0,2013-02-24 03:51:00
9:51 PM,14.0,8.1,77,30.09,-9999.0,West,5.8,-,N/A,,Unknown,280,2013-02-24 04:51:00
10:51 PM,5.0,1.9,87,30.14,-9999.0,South,3.5,-,N/A,,Unknown,170,2013-02-24 05:51:00
11:51 PM,12.9,8.1,81,30.12,-9999.0,Calm,Calm,-,N/A,,Unknown,0,2013-02-24 06:51:00